Date,TemperatureHighF,TemperatureAvgF,TemperatureLowF,DewpointHighF,DewpointAvgF,DewpointLowF,HumidityHigh,HumidityAvg,HumidityLow,PressureMaxIn,PressureMinIn,WindSpeedMaxMPH,WindSpeedAvgMPH,GustSpeedMaxMPH,PrecipitationSumIn
2013-12-1,61.9,43.2,28.2,42.6,35.9,25.8,95,72,34,39.33,39.33,2,0,3,0.00
2013-12-2,63.7,47.8,39.6,50.1,42.6,38.0,96,79,48,39.19,39.19,2,0,4,0.00
2013-12-3,58.1,47.1,33.6,49.0,42.7,32.5,99,81,61,39.19,39.16,2,0,4,0.00
2013-12-4,65.3,57.7,52.7,59.5,53.8,48.2,96,83,72,39.16,39.16,2,0,3,0.00
2013-12-5,67.8,61.8,53.4,65.3,60.5,52.5,99,94,86,39.16,39.16,2,0,4,0.01
2013-12-6,80.6,71.6,65.5,67.6,65.0,62.9,92,76,55,56.33,39.16,5,1,11,0.01
2013-12-7,69.8,50.6,43.7,65.8,46.8,36.2,98,83,67,56.19,40.00,2,0,5,0.21
2013-12-8,43.5,36.7,34.3,36.0,33.0,31.3,94,83,60,40.39,40.00,2,0,4,0.13
2013-12-9,46.2,40.0,34.7,45.6,39.4,33.6,99,97,94,69.47,40.00,4,0,4,0.18
2013-12-10,49.8,43.8,29.7,48.0,42.2,27.3,99,92,70,69.47,40.00,2,0,4,0.63
2013-12-11,52.3,35.9,24.8,36.4,28.1,22.5,93,69,31,39.18,39.18,2,0,5,0.01
2013-12-12,48.6,35.0,26.6,28.4,23.8,18.5,85,58,22,39.21,39.21,2,0,4,0.00
2013-12-13,54.7,36.5,23.2,32.9,25.2,19.1,81,58,20,39.21,39.16,4,0,6,0.00
2013-12-14,48.4,42.4,38.5,43.1,37.5,31.1,97,79,47,69.58,40.00,2,0,4,0.71
2013-12-15,58.3,43.8,32.5,47.7,38.1,-99.9,99,78,43,69.58,39.29,2,0,5,0.07
2013-12-16,58.5,40.8,28.4,39.6,33.3,26.0,88,70,36,39.29,39.18,2,0,5,0.01
2013-12-17,63.9,48.3,33.3,43.6,37.7,30.6,92,62,33,39.18,39.18,4,0,7,0.00
2013-12-18,53.4,41.7,30.2,39.1,26.4,22.1,73,46,20,39.18,39.18,2,0,4,0.00
2013-12-19,65.5,45.0,28.4,36.0,29.5,23.6,77,50,18,39.18,39.18,2,0,7,0.00
2013-12-20,69.3,54.1,42.4,57.1,46.4,33.6,85,69,51,39.15,39.15,3,0,5,0.00
2013-12-21,75.2,61.6,49.1,66.9,57.1,0.0,94,82,61,39.15,39.15,232,1,232,0.00
2013-12-22,79.5,68.5,64.8,69.5,59.2,-99.9,95,77,59,48.22,40.00,7,1,10,0.32
2013-12-23,68.0,60.8,45.5,66.6,59.7,-99.9,99,96,92,54.49,40.00,3,0,4,1.36
2013-12-24,50.2,42.2,29.7,44.3,32.5,17.3,93,61,40,47.78,40.00,3,0,6,0.08
2013-12-25,44.1,31.4,23.4,19.6,16.6,13.7,63,44,22,39.42,39.42,3,0,4,0.00
2013-12-26,54.3,37.0,26.8,39.4,30.3,19.4,87,71,38,39.17,39.17,2,0,3,0.05
2013-12-27,56.1,37.2,25.9,36.3,27.6,0.0,90,64,23,39.15,30.80,22,0,43,0.01
2013-12-28,61.7,41.0,25.3,40.3,28.7,-99.9,90,62,21,39.15,39.15,2,0,4,0.00
2013-12-29,62.1,46.5,42.8,61.6,39.2,-99.9,99,88,64,39.15,39.15,916,0,916,1.64
2013-12-30,54.7,44.8,35.1,50.5,41.5,34.7,99,86,60,39.15,39.15,1,0,2,0.01
2013-12-31,52.2,42.7,32.4,39.6,33.2,27.6,87,63,27,39.15,39.15,2,0,4,0.00